Flag for Angola Weather past 2 weeks in Lubango, Angola

Now
70 °F

Passing clouds.


Feels Like: 70 °F
Forecast: 53 / 71 °F
Wind: 6 mph from South

Location: Ondangwa


UV Index: 7 (High)

Visibility: N/A


Pressure: 30.04 "Hg

Humidity: 73%

Dew point: 61 °F

Location of LubangoLocation

Historic Weather in Lubango

°F

Lubango temperature yesterday

Maximum temperature yesterday: 86 °F (at 12:00 PM)
Minimum temperature yesterday: 66 °F (at 1:00 AM)
Average temperature yesterday: 72 °F

Past Weeks' High & Low Weather Summary

 TemperatureHumidityPressure
High88 °F (Apr 8, 3:00 PM)94% (Apr 12, 2:00 AM)30.18 "Hg (Apr 12, 2:00 AM)
Low59 °F (Apr 11, 6:00 AM)25% (Apr 16, 4:00 PM)29.95 "Hg (Apr 21, 3:00 PM)
Average72 °F63%30.07 "Hg
* Reported Apr 8 8:00 AM — Apr 23 8:00 AM, Lubango, Weather by CustomWeather, © 2014

Note: Actual official high and low records may vary slightly from our data, if they occured in-between our weather recording intervals... More about our weather records

Advertising

Historic Weather Conditions — Data for Previous 24 hours

 ConditionsComfort  
Time TempWeatherWind HumidityBarometerVisibility
8:00 AM
Apr 23
70 °FPassing clouds.6 mph73%30.04 "HgN/A
7:00 AM64 °FPassing clouds.3 mph88%30.04 "HgN/A
6:00 AM63 °FMild.2 mph88%30.01 "HgN/A
5:00 AM64 °FMild.1 mph88%29.98 "HgN/A
4:00 AM64 °FMild.2 mph83%29.98 "HgN/A
3:00 AM64 °FMild.1 mph88%29.98 "HgN/A
2:00 AM64 °FMild.No wind83%29.98 "HgN/A
1:00 AM66 °FMild.2 mph83%29.98 "HgN/A
12:00 AM66 °FMild.2 mph83%30.01 "HgN/A
11:00 PM
Apr 22
68 °FMild.3 mph78%30.01 "HgN/A
10:00 PM70 °FMild.8 mph73%29.98 "HgN/A
9:00 PM70 °FMild.3 mph78%29.98 "HgN/A
8:00 PM72 °FMild.2 mph69%29.98 "HgN/A
7:00 PM70 °FLight rain. Passing clouds.14 mph69%30.01 "HgN/A
12:00 PM86 °FScattered clouds.1 mph33%30.01 "HgN/A
11:00 AM84 °FScattered clouds.3 mph37%30.04 "HgN/A
10:00 AM79 °FScattered clouds.3 mph51%30.07 "HgN/A
9:00 AM79 °FScattered clouds.7 mph51%30.07 "HgN/A
Weather by CustomWeather, © 2014

See weather overview